Morgantown, WV

7:01 PM EST on February 08, 2016 (GMT -0500)
Morgantown Municipal-Hart

Weather History for KMGW - July, 2012

Change the Weather History Date:

Saturday, July 14, 2012

  Actual Average Record
Temperature  
Mean Temperature 78 °F 73 °F  
Max Temperature 88 °F 84 °F 98 °F (1954)
Min Temperature 67 °F 63 °F 52 °F (1976)
Degree Days  
Heating Degree Days 0 0  
Month to date heating degree days 0 0  
Since 1 June heating degree days 19 31  
Since 1 July heating degree days 0 0  
Cooling Degree Days 13 8  
Month to date cooling degree days 203 112  
Year to date cooling degree days 562 341  
Since 1 June cooling degree days 385 274  
Growing Degree Days 28 (Base 50)    
Moisture  
Dew Point 66 °F    
Average Humidity 67    
Maximum Humidity 87    
Minimum Humidity 46    
Precipitation  
Precipitation 0.20 in 0.15 in 1.58 in (1960)
Month to date precipitation 0.32 2.15  
Year to date precipitation 14.40 23.45  
Sea Level Pressure  
Sea Level Pressure 30.16 in    
Wind  
Wind Speed 3 mph (SSE)    
Max Wind Speed 20 mph    
Max Gust Speed 31 mph    
Visibility 9 miles    
Events Rain , Thunderstorm    
T = Trace of Precipitation, MM = Missing Value Source: NWS Daily Summary

Daily Weather History Graph

Daily Weather History Graph

Search for Another Location

Airport or City:

Trip Planner

Search our weather history database for the weather conditions in past years. The results will help you decide how hot, cold, wet, or windy it might be!

Date:

Astronomy

Jul. 14, 2012 Rise Set
Actual Time 6:04 AM EDT 8:46 PM EDT
Civil Twilight 5:32 AM EDT 9:18 PM EDT
Nautical Twilight 4:52 AM EDT 9:57 PM EDT
Astronomical Twilight 4:07 AM EDT 10:42 PM EDT
Moon 2:17 AM EDT (7/14) 5:09 PM EDT (7/14)
Length of Visible Light 15h 45m
Length of Day
14h 42m
Waning Crescent, 19% of the Moon is Illuminated
Jul 14
Waning Crescent
Jul 19
New
Jul 26
First Quarter
Aug 1
Full
Aug 9
Last Quarter

Hourly Weather History & Observations

Time (EDT) Temp. Heat Index Dew Point Humidity Pressure Visibility Wind Dir Wind Speed Gust Speed Precip Events Conditions
12:53 AM 68.0 °F - 62.1 °F 81% 30.19 in 10.0 mi ESE 4.6 mph - N/A   Overcast
1:53 AM 68.0 °F - 61.0 °F 78% 30.18 in 10.0 mi SSE 4.6 mph - N/A   Overcast
2:53 AM 69.1 °F - 62.1 °F 78% 30.17 in 10.0 mi SSE 4.6 mph - N/A   Overcast
3:53 AM 68.0 °F - 62.6 °F 83% 30.17 in 10.0 mi SE 3.5 mph - N/A   Overcast
4:53 AM 68.0 °F - 62.6 °F 83% 30.16 in 10.0 mi SSE 4.6 mph - N/A   Scattered Clouds
5:53 AM 68.0 °F - 62.6 °F 83% 30.18 in 10.0 mi Calm Calm - N/A   Mostly Cloudy
6:53 AM 68.0 °F - 64.0 °F 87% 30.17 in 10.0 mi Calm Calm - N/A   Overcast
7:53 AM 69.8 °F - 64.4 °F 83% 30.19 in 10.0 mi Calm Calm - N/A   Overcast
8:53 AM 72.0 °F - 64.9 °F 78% 30.18 in 10.0 mi Calm Calm - N/A   Overcast
9:51 AM 73.4 °F - 66.2 °F 78% 30.21 in 10.0 mi Calm Calm - N/A   Overcast
9:53 AM 73.9 °F - 66.0 °F 76% 30.19 in 10.0 mi Calm Calm - N/A   Overcast
10:20 AM 75.2 °F - 66.2 °F 73% 30.21 in 10.0 mi Calm Calm - N/A   Mostly Cloudy
10:53 AM 75.9 °F - 66.9 °F 74% 30.19 in 10.0 mi Variable 3.5 mph - N/A   Overcast
11:53 AM 78.1 °F - 68.0 °F 71% 30.19 in 10.0 mi SW 5.8 mph - N/A   Mostly Cloudy
12:53 PM 81.0 °F 83.8 °F 68.0 °F 65% 30.18 in 10.0 mi Variable 5.8 mph - N/A   Scattered Clouds
1:53 PM 84.9 °F 88.2 °F 68.0 °F 57% 30.14 in 10.0 mi Variable 5.8 mph - N/A   Scattered Clouds
2:53 PM 84.9 °F 87.6 °F 66.9 °F 55% 30.12 in 10.0 mi Calm Calm - N/A   Partly Cloudy
3:53 PM 87.1 °F 88.9 °F 64.9 °F 48% 30.09 in 10.0 mi Variable 3.5 mph - N/A   Mostly Cloudy
4:53 PM 84.9 °F 88.2 °F 68.0 °F 57% 30.09 in 10.0 mi NNW 4.6 mph - N/A   Scattered Clouds
5:53 PM 84.9 °F 88.8 °F 69.1 °F 59% 30.08 in 10.0 mi Variable 5.8 mph - N/A   Scattered Clouds
6:53 PM 84.0 °F 87.8 °F 69.1 °F 61% 30.09 in 10.0 mi NNE 4.6 mph - N/A   Scattered Clouds
7:53 PM 82.9 °F 85.4 °F 66.9 °F 58% 30.10 in 10.0 mi SSW 4.6 mph - N/A   Mostly Cloudy
8:53 PM 80.1 °F 82.3 °F 66.9 °F 64% 30.11 in 10.0 mi SSE 4.6 mph - N/A   Overcast
9:43 PM 78.8 °F - 68.0 °F 69% 30.15 in 10.0 mi Calm Calm - N/A Thunderstorm Thunderstorm
9:53 PM 78.1 °F - 68.0 °F 71% 30.13 in 10.0 mi SSE 4.6 mph - N/A Thunderstorm Thunderstorm
10:23 PM 69.8 °F - 68.0 °F 94% 30.20 in 2.0 mi South 12.7 mph 23.0 mph 0.10 in Rain Rain
10:31 PM 69.8 °F - 68.0 °F 94% 30.19 in 3.0 mi South 10.4 mph 23.0 mph 0.13 in Thunderstorm Overcast
10:53 PM 71.1 °F - 69.1 °F 93% 30.17 in 10.0 mi South 6.9 mph - 0.14 in Thunderstorm Thunderstorm
11:02 PM 71.6 °F - 69.8 °F 94% 30.19 in 10.0 mi SSW 5.8 mph - 0.00 in   Mostly Cloudy
11:53 PM 71.1 °F - 69.1 °F 93% 30.16 in 7.0 mi South 4.6 mph - 0.04 in Rain Light Rain